ETD620 OMAA-OKKK

Flight info

Callsign ETD620
Flight time 1h 19m
Altitude 34000
Route DAXIB Q563 UKUVO G462 TUMAK M600 KUMBO/N0464F240 A453 DEBTI
Aircraft A339/H-SADE1E2E3GHIJ3J5M1P2RWXY/LB2D1

Departure

Time 2026-05-04 15:36
Airport Zayed International Airport (OMAA)

Arrival

Time 2026-05-04 16:56
Airport Kuwait International Airport (OKKK)
Time Latitude Longitude Altitude Speed Heading
2026-05-04 14:56 24.44901 54.63895 98 ft 0 kts 334°
2026-05-04 15:16 24.44892 54.63900 98 ft 2 kts 334°
2026-05-04 15:16 24.44879 54.63907 98 ft 2 kts 334°
2026-05-04 15:16 24.44852 54.63921 98 ft 2 kts 334°
2026-05-04 15:17 24.44839 54.63928 98 ft 2 kts 335°
2026-05-04 15:17 24.44809 54.63934 98 ft 2 kts
2026-05-04 15:17 24.44794 54.63930 98 ft 2 kts 24°
2026-05-04 15:18 24.44781 54.63922 98 ft 2 kts 39°
2026-05-04 15:18 24.44770 54.63910 98 ft 2 kts 54°
2026-05-04 15:18 24.44765 54.63900 98 ft 0 kts 65°
2026-05-04 15:19 24.44763 54.63896 98 ft 0 kts 66°
2026-05-04 15:24 24.44768 54.63907 98 ft 2 kts 64°
2026-05-04 15:24 24.44797 54.63973 98 ft 6 kts 73°
2026-05-04 15:25 24.44794 54.64034 98 ft 9 kts 110°
2026-05-04 15:25 24.44755 54.64104 98 ft 11 kts 129°
2026-05-04 15:25 24.44684 54.64149 98 ft 12 kts 159°
2026-05-04 15:26 24.44497 54.64231 99 ft 15 kts 159°
2026-05-04 15:26 24.44402 54.64285 99 ft 15 kts 140°
2026-05-04 15:26 24.44269 54.64455 99 ft 14 kts 128°
2026-05-04 15:27 24.44205 54.64545 99 ft 15 kts 128°
2026-05-04 15:27 24.44071 54.64733 99 ft 13 kts 128°
2026-05-04 15:28 24.44029 54.64774 99 ft 0 kts 155°
2026-05-04 15:28 24.44027 54.64775 99 ft 2 kts 158°
2026-05-04 15:28 24.43941 54.64747 99 ft 9 kts 192°
2026-05-04 15:29 24.43878 54.64773 99 ft 11 kts 131°
2026-05-04 15:30 24.43644 54.65110 99 ft 15 kts 128°
2026-05-04 15:30 24.43443 54.65395 99 ft 15 kts 128°
2026-05-04 15:31 24.43304 54.65593 99 ft 16 kts 128°
2026-05-04 15:31 24.43231 54.65697 99 ft 16 kts 127°
2026-05-04 15:32 24.42998 54.66027 99 ft 20 kts 127°
2026-05-04 15:32 24.42816 54.66280 99 ft 21 kts 128°
2026-05-04 15:33 24.42623 54.66554 99 ft 23 kts 128°
2026-05-04 15:34 24.42387 54.66855 99 ft 7 kts 167°
2026-05-04 15:34 24.42335 54.66838 99 ft 8 kts 214°
2026-05-04 15:34 24.42220 54.66741 99 ft 9 kts 223°
2026-05-04 15:35 24.42242 54.66613 99 ft 11 kts 308°
2026-05-04 15:35 24.42319 54.66505 99 ft 38 kts 308°
2026-05-04 15:35 24.42612 54.66092 99 ft 97 kts 308°
2026-05-04 15:36 24.43850 54.64352 281 ft 172 kts 308°
2026-05-04 15:36 24.44552 54.63381 957 ft 161 kts 308°
2026-05-04 15:36 24.45240 54.62413 1499 ft 162 kts 308°
2026-05-04 15:37 24.45961 54.61471 1965 ft 167 kts 315°
2026-05-04 15:37 24.46851 54.60557 2210 ft 178 kts 318°
2026-05-04 15:37 24.47813 54.59611 2438 ft 189 kts 318°
2026-05-04 15:37 24.48852 54.58581 2672 ft 203 kts 318°
2026-05-04 15:38 24.49933 54.57500 2915 ft 217 kts 317°
2026-05-04 15:38 24.51114 54.56309 3176 ft 232 kts 317°
2026-05-04 15:38 24.52369 54.55035 3445 ft 247 kts 318°
2026-05-04 15:38 24.53671 54.53709 3830 ft 258 kts 318°
2026-05-04 15:39 24.54995 54.52358 4426 ft 260 kts 319°
2026-05-04 15:39 24.56341 54.50981 5065 ft 261 kts 319°
2026-05-04 15:39 24.59026 54.48235 6289 ft 264 kts 319°
2026-05-04 15:40 24.60402 54.46830 6850 ft 267 kts 319°
2026-05-04 15:40 24.61779 54.45423 7417 ft 269 kts 319°
2026-05-04 15:40 24.63186 54.43984 7986 ft 271 kts 319°
2026-05-04 15:40 24.64564 54.42571 8538 ft 273 kts 319°
2026-05-04 15:41 24.65974 54.41128 9138 ft 274 kts 319°
2026-05-04 15:41 24.67396 54.39670 9692 ft 277 kts 319°
2026-05-04 15:41 24.68826 54.38204 10203 ft 280 kts 318°
2026-05-04 15:41 24.70293 54.36698 10527 ft 292 kts 318°
2026-05-04 15:42 24.71819 54.35131 10782 ft 306 kts 318°
2026-05-04 15:42 24.73463 54.33443 11032 ft 320 kts 318°
2026-05-04 15:42 24.75149 54.31710 11264 ft 333 kts 317°
2026-05-04 15:42 24.76875 54.29936 11498 ft 346 kts 317°
2026-05-04 15:43 24.78683 54.28077 11729 ft 359 kts 317°
2026-05-04 15:43 24.80544 54.26161 11958 ft 371 kts 317°
2026-05-04 15:43 24.82477 54.24170 12331 ft 378 kts 317°
2026-05-04 15:43 24.84394 54.22194 12820 ft 382 kts 317°
2026-05-04 15:44 24.86372 54.20154 13330 ft 386 kts 317°
2026-05-04 15:44 24.88361 54.18103 13849 ft 389 kts 317°
2026-05-04 15:44 24.90368 54.16024 14377 ft 392 kts 316°
2026-05-04 15:44 24.92311 54.13830 14903 ft 395 kts 313°
2026-05-04 15:45 24.94217 54.11507 15422 ft 398 kts 312°
2026-05-04 15:45 24.96129 54.09151 15950 ft 401 kts 311°
2026-05-04 15:45 24.97999 54.06838 16440 ft 405 kts 311°
2026-05-04 15:45 24.99915 54.04466 16937 ft 408 kts 311°
2026-05-04 15:46 25.01837 54.02088 17443 ft 412 kts 311°
2026-05-04 15:46 25.03765 53.99701 17953 ft 414 kts 311°
2026-05-04 15:46 25.05714 53.97287 18454 ft 417 kts 310°
2026-05-04 15:46 25.07676 53.94856 18964 ft 420 kts 310°
2026-05-04 15:47 25.09668 53.92385 19457 ft 423 kts 310°
2026-05-04 15:47 25.11675 53.89894 19916 ft 427 kts 310°
2026-05-04 15:47 25.13685 53.87397 20370 ft 430 kts 310°
2026-05-04 15:47 25.15706 53.84886 20816 ft 433 kts 310°
2026-05-04 15:48 25.17749 53.82349 21257 ft 436 kts 310°
2026-05-04 15:48 25.19808 53.79901 21696 ft 439 kts 313°
2026-05-04 15:48 25.24365 53.75267 22520 ft 446 kts 317°
2026-05-04 15:49 25.26759 53.73041 22926 ft 449 kts 318°
2026-05-04 15:49 25.29173 53.70810 23343 ft 451 kts 318°
2026-05-04 15:49 25.31612 53.68557 23756 ft 453 kts 318°
2026-05-04 15:49 25.34065 53.66287 24170 ft 454 kts 317°
2026-05-04 15:50 25.36506 53.64024 24575 ft 456 kts 317°
2026-05-04 15:50 25.38980 53.61728 24970 ft 457 kts 317°
2026-05-04 15:50 25.41442 53.59443 25344 ft 459 kts 317°
2026-05-04 15:50 25.43938 53.57126 25738 ft 460 kts 317°
2026-05-04 15:51 25.46411 53.54834 26104 ft 462 kts 317°
2026-05-04 15:51 25.48897 53.52528 26460 ft 463 kts 317°
2026-05-04 15:51 25.51420 53.50184 26815 ft 465 kts 317°
2026-05-04 15:51 25.53914 53.47863 27161 ft 466 kts 317°
2026-05-04 15:52 25.56389 53.45557 27487 ft 467 kts 317°
2026-05-04 15:52 25.58930 53.43189 27805 ft 469 kts 316°
2026-05-04 15:52 25.61418 53.40869 28125 ft 470 kts 316°
2026-05-04 15:52 25.63936 53.38454 28430 ft 471 kts 315°
2026-05-04 15:53 25.66421 53.36024 28733 ft 472 kts 315°
2026-05-04 15:53 25.68911 53.33577 29148 ft 470 kts 314°
2026-05-04 15:53 25.71331 53.31202 29639 ft 467 kts 314°
2026-05-04 15:53 25.73796 53.28786 30124 ft 464 kts 314°
2026-05-04 15:54 25.76227 53.26401 30557 ft 462 kts 314°
2026-05-04 15:54 25.78523 53.23949 30981 ft 458 kts 310°
2026-05-04 15:54 25.80673 53.21360 31406 ft 454 kts 307°
2026-05-04 15:54 25.82695 53.18608 31838 ft 450 kts 304°
2026-05-04 15:55 25.84530 53.15777 32247 ft 447 kts 301°
2026-05-04 15:55 25.86184 53.12875 32582 ft 445 kts 297°
2026-05-04 15:55 25.87690 53.09848 32877 ft 445 kts 294°
2026-05-04 15:55 25.89011 53.06792 33187 ft 444 kts 292°
2026-05-04 15:56 25.90304 53.03640 33468 ft 445 kts 292°
2026-05-04 15:56 25.91572 53.00524 33687 ft 447 kts 291°
2026-05-04 15:56 25.94164 52.94130 33722 ft 447 kts 292°
2026-05-04 15:57 25.96720 52.87822 33732 ft 448 kts 291°
2026-05-04 15:57 25.99282 52.81489 33741 ft 447 kts 291°
2026-05-04 15:58 26.01874 52.75113 33738 ft 447 kts 292°
2026-05-04 15:58 26.04666 52.68873 33740 ft 449 kts 294°
2026-05-04 15:59 26.07456 52.62673 33739 ft 448 kts 294°
2026-05-04 15:59 26.10261 52.56425 33744 ft 448 kts 294°
2026-05-04 16:00 26.13082 52.50163 33745 ft 448 kts 294°
2026-05-04 16:00 26.15906 52.43909 33740 ft 448 kts 293°
2026-05-04 16:01 26.18730 52.37626 33740 ft 448 kts 293°
2026-05-04 16:01 26.21534 52.31379 33740 ft 448 kts 293°
2026-05-04 16:02 26.24325 52.25014 33746 ft 448 kts 292°
2026-05-04 16:03 26.28432 52.15493 33744 ft 447 kts 292°
2026-05-04 16:03 26.31134 52.09225 33738 ft 447 kts 292°
2026-05-04 16:04 26.33878 52.02872 33736 ft 446 kts 292°
2026-05-04 16:04 26.37869 51.93305 33738 ft 447 kts 289°
2026-05-04 16:05 26.40099 51.86785 33738 ft 446 kts 287°
2026-05-04 16:06 26.43395 51.76961 33740 ft 446 kts 287°
2026-05-04 16:07 26.47755 51.63925 33745 ft 445 kts 287°
2026-05-04 16:08 26.52139 51.50784 33754 ft 444 kts 287°
2026-05-04 16:09 26.57511 51.34560 33759 ft 444 kts 287°
2026-05-04 16:10 26.61843 51.21489 33755 ft 444 kts 287°
2026-05-04 16:11 26.66245 51.08161 33758 ft 444 kts 286°
2026-05-04 16:12 26.72588 50.88586 33765 ft 445 kts 285°
2026-05-04 16:13 26.76776 50.75450 33770 ft 444 kts 285°
2026-05-04 16:14 26.80973 50.62355 33760 ft 443 kts 287°
2026-05-04 16:16 26.86649 50.46146 33770 ft 445 kts 290°
2026-05-04 16:17 26.94446 50.30821 33772 ft 450 kts 296°
2026-05-04 16:18 27.01001 50.18859 33763 ft 450 kts 296°
2026-05-04 16:19 27.10465 50.04548 33763 ft 455 kts 304°
2026-05-04 16:20 27.20857 49.90876 33779 ft 455 kts 304°
2026-05-04 16:22 27.31288 49.77095 33783 ft 456 kts 303°
2026-05-04 16:23 27.43930 49.60331 33788 ft 455 kts 303°
2026-05-04 16:24 27.53180 49.50240 33784 ft 466 kts 313°
2026-05-04 16:25 27.58264 49.45663 33784 ft 467 kts 314°
2026-05-04 16:26 27.68467 49.36513 33204 ft 464 kts 314°
2026-05-04 16:26 27.76001 49.29733 32466 ft 457 kts 314°
2026-05-04 16:27 27.81013 49.25209 31979 ft 458 kts 314°
2026-05-04 16:28 27.88770 49.18648 31084 ft 467 kts 320°
2026-05-04 16:28 27.97193 49.12996 29334 ft 471 kts 323°
2026-05-04 16:29 28.08567 49.05548 27123 ft 459 kts 324°
2026-05-04 16:30 28.16806 49.00122 25378 ft 449 kts 324°
2026-05-04 16:31 28.22185 48.96568 23918 ft 448 kts 325°
2026-05-04 16:31 28.30221 48.91264 22819 ft 446 kts 326°
2026-05-04 16:32 28.38219 48.85981 21699 ft 435 kts 326°
2026-05-04 16:33 28.43432 48.82523 20905 ft 428 kts 326°
2026-05-04 16:33 28.48470 48.79180 19998 ft 394 kts 326°
2026-05-04 16:34 28.52978 48.76186 19384 ft 352 kts 326°
2026-05-04 16:34 28.55026 48.74771 19059 ft 335 kts 321°
2026-05-04 16:35 28.60061 48.69355 18152 ft 324 kts 305°
2026-05-04 16:35 28.64090 48.63309 17581 ft 316 kts 305°
2026-05-04 16:36 28.65449 48.61330 17526 ft 317 kts 305°
2026-05-04 16:36 28.68114 48.57299 17095 ft 313 kts 304°
2026-05-04 16:37 28.70746 48.53294 16869 ft 312 kts 304°
2026-05-04 16:37 28.72058 48.51299 16878 ft 312 kts 304°
2026-05-04 16:37 28.75390 48.47887 16020 ft 327 kts 326°
2026-05-04 16:38 28.79445 48.45351 15043 ft 333 kts 328°
2026-05-04 16:39 28.85702 48.41497 13465 ft 329 kts 327°
2026-05-04 16:39 28.89656 48.39049 12461 ft 307 kts 327°
2026-05-04 16:40 28.93442 48.36681 11516 ft 307 kts 327°
2026-05-04 16:40 28.97221 48.34322 10479 ft 300 kts 328°
2026-05-04 16:41 29.00960 48.31991 9490 ft 298 kts 328°
2026-05-04 16:41 29.06444 48.28567 8063 ft 299 kts 329°
2026-05-04 16:42 29.11867 48.25180 6718 ft 278 kts 330°
2026-05-04 16:43 29.15144 48.23134 6230 ft 265 kts 330°
2026-05-04 16:43 29.18417 48.21085 5761 ft 264 kts 331°
2026-05-04 16:43 29.20042 48.20067 5536 ft 264 kts 331°
2026-05-04 16:44 29.26360 48.16109 4568 ft 250 kts 332°
2026-05-04 16:45 29.29357 48.14233 4151 ft 251 kts 332°
2026-05-04 16:46 29.33988 48.11324 3070 ft 241 kts 333°
2026-05-04 16:46 29.36825 48.09544 3040 ft 230 kts 333°
2026-05-04 16:47 29.39632 48.07786 2996 ft 226 kts 333°
2026-05-04 16:47 29.42412 48.06040 2992 ft 226 kts 333°
2026-05-04 16:48 29.46380 48.03046 2975 ft 228 kts 299°
2026-05-04 16:48 29.46761 48.01279 2961 ft 230 kts 266°
2026-05-04 16:49 29.46048 47.97683 2537 ft 231 kts 250°
2026-05-04 16:49 29.44699 47.94293 2494 ft 233 kts 244°
2026-05-04 16:50 29.43232 47.90907 2494 ft 235 kts 244°
2026-05-04 16:50 29.41778 47.87531 2496 ft 233 kts 244°
2026-05-04 16:51 29.40017 47.84455 2477 ft 232 kts 210°
2026-05-04 16:51 29.38533 47.83801 2490 ft 229 kts 181°
2026-05-04 16:51 29.35816 47.85177 2505 ft 213 kts 135°
2026-05-04 16:52 29.33733 47.87485 2393 ft 201 kts 133°
2026-05-04 16:52 29.32699 47.88566 2171 ft 202 kts 140°
2026-05-04 16:53 29.30322 47.90195 1676 ft 192 kts 150°
2026-05-04 16:53 29.26892 47.92020 1009 ft 169 kts 152°
2026-05-04 16:54 29.25805 47.92600 791 ft 163 kts 152°
2026-05-04 16:55 29.21955 47.94658 167 ft 132 kts 155°
2026-05-04 16:55 29.21044 47.95142 166 ft 50 kts 154°
2026-05-04 16:56 29.20632 47.95414 173 ft 19 kts 123°
2026-05-04 16:56 29.20650 47.95596 173 ft 4 kts 333°
2026-05-04 16:57 29.20690 47.95573 172 ft 7 kts 333°
2026-05-04 16:57 29.20823 47.95499 169 ft 12 kts 334°
2026-05-04 16:58 29.21095 47.95342 167 ft 15 kts 330°
2026-05-04 16:58 29.21201 47.95291 165 ft 17 kts 339°
2026-05-04 16:59 29.21439 47.95176 163 ft 18 kts 335°
2026-05-04 17:00 29.21882 47.94943 163 ft 10 kts 345°
2026-05-04 17:00 29.22015 47.95128 163 ft 12 kts 64°
2026-05-04 17:01 29.22101 47.95339 166 ft 16 kts 64°
2026-05-04 17:01 29.22215 47.95619 163 ft 22 kts 65°
2026-05-04 17:02 29.22361 47.95978 160 ft 26 kts 65°
2026-05-04 17:02 29.22510 47.96341 160 ft 22 kts 65°
2026-05-04 17:03 29.22579 47.96508 160 ft 19 kts 65°
2026-05-04 17:03 29.22626 47.96612 160 ft 11 kts 47°
2026-05-04 17:03 29.22780 47.96579 158 ft 15 kts 335°
2026-05-04 17:04 29.22934 47.96498 157 ft 8 kts 336°
2026-05-04 17:04 29.22969 47.96487 157 ft 0 kts 358°
2026-05-04 17:05 29.22970 47.96487 157 ft 0 kts 358°
2026-05-04 17:05 29.23023 47.96532 157 ft 8 kts 60°
2026-05-04 17:06 29.23092 47.96691 157 ft 12 kts 64°
2026-05-04 17:06 29.23126 47.96778 157 ft 9 kts 66°
2026-05-04 17:07 29.23134 47.96798 157 ft 0 kts 65°
2026-05-04 17:07 29.23136 47.96803 157 ft 1 kts 65°
2026-05-04 17:07 29.23149 47.96831 157 ft 4 kts 56°
2026-05-04 17:07 29.23172 47.96850 157 ft 4 kts 14°
2026-05-04 17:08 29.23213 47.96843 157 ft 7 kts 340°
2026-05-04 17:08 29.23326 47.96783 157 ft 9 kts 338°
2026-05-04 17:08 29.23387 47.96793 156 ft 9 kts 44°
2026-05-04 17:09 29.23412 47.96840 157 ft 4 kts 62°
2026-05-04 17:09 29.23430 47.96876 157 ft 5 kts 62°
2026-05-04 17:09 29.23447 47.96919 157 ft 7 kts 66°
2026-05-04 17:10 29.23505 47.97065 158 ft 10 kts 65°
2026-05-04 17:10 29.23590 47.97267 163 ft 8 kts 62°
2026-05-04 17:11 29.23616 47.97333 163 ft 9 kts 66°
2026-05-04 17:11 29.23644 47.97406 164 ft 9 kts 67°
2026-05-04 17:11 29.23695 47.97457 165 ft 4 kts 355°
2026-05-04 17:12 29.23732 47.97443 166 ft 6 kts 335°
2026-05-04 17:12 29.23814 47.97386 166 ft 5 kts 298°
2026-05-04 17:13 29.23807 47.97306 165 ft 0 kts 244°